DW1087 Weather Reports


Display with metric or nautical units.
time (UTC)temp
F
wind
direction
speed
MPH
gust
MPH
rain 1hr
in
rain 24hr
in
rain mn
in
humidity
%
barometer
mb
20181219001416 44 217 17.0 20.0 0.00 0.00 0.00 52 1001.6
20181219000911 44 208 15.0 20.0 0.00 0.00 0.00 53 1001.6
20181219000404 44 221 16.0 20.0 0.00 0.00 0.00 52 1001.8
20181218235858 44 227 17.0 20.0 0.00 0.00 0.00 53 1001.7
20181218235410 44 216 17.0 20.0 0.00 0.00 0.00 53 1001.7
20181218234902 44 223 14.0 19.0 0.00 0.00 0.00 53 1001.5
20181218234354 44 215 15.0 19.0 0.00 0.00 0.00 53 1001.6
20181218233909 44 221 16.0 19.0 0.00 0.00 0.00 53 1001.6
20181218233440 44 219 15.0 20.0 0.00 0.00 0.00 53 1001.7
20181218232933 45 230 15.0 20.0 0.00 0.00 0.00 52 1001.8
20181218232404 45 229 15.0 21.0 0.00 0.00 0.00 52 1001.8
20181218231856 45 216 16.0 21.0 0.00 0.00 0.00 52 1001.8
20181218231408 45 219 16.0 20.0 0.00 0.00 0.00 53 1001.8
20181218230904 45 226 16.0 20.0 0.00 0.00 0.00 53 1001.7
20181218230356 45 219 15.0 20.0 0.00 0.00 0.00 53 1001.6
20181218225906 45 222 15.0 21.0 0.00 0.00 0.00 53 1001.7
20181218225358 45 217 14.0 21.0 0.00 0.00 0.00 53 1001.6
20181218224911 45 223 16.0 22.0 0.00 0.00 0.00 53 1001.7
20181218224403 45 227 17.0 23.0 0.00 0.00 0.00 53 1001.9
20181218223858 45 229 20.0 24.0 0.00 0.00 0.00 53 1001.8
20181218223430 46 226 18.0 24.0 0.00 0.00 0.00 53 1001.8
20181218222921 46 216 18.0 23.0 0.00 0.00 0.00 53 1001.9
20181218222359 46 215 15.0 20.0 0.00 0.00 0.00 54 1001.8
20181218221932 46 236 16.0 21.0 0.00 0.00 0.00 54 1001.8
20181218221403 46 229 18.0 21.0 0.00 0.00 0.00 54 1002.0
20181218220915 46 230 17.0 20.0 0.00 0.00 0.00 54 1002.0
20181218220406 46 242 15.0 19.0 0.00 0.00 0.00 54 1002.1
20181218215917 47 232 13.0 21.0 0.00 0.00 0.00 54 1002.2
20181218215408 46 224 16.0 21.0 0.00 0.00 0.00 54 1002.3
20181218214923 46 227 15.0 20.0 0.00 0.00 0.00 54 1002.3
20181218214353 46 223 17.0 20.0 0.00 0.00 0.00 54 1002.3
20181218213905 46 227 17.0 20.0 0.00 0.00 0.00 54 1002.3
20181218213400 47 238 15.0 19.0 0.00 0.00 0.00 53 1002.3
20181218212912 47 229 15.0 19.0 0.00 0.00 0.00 53 1002.3
20181218212410 47 232 14.0 22.0 0.00 0.00 0.00 52 1002.4
20181218211901 47 213 18.0 22.0 0.00 0.00 0.00 52 1002.2
20181218211354 47 226 17.0 24.0 0.00 0.00 0.00 52 1002.2
20181218210926 47 226 19.0 24.0 0.00 0.00 0.00 51 1002.2
20181218210357 47 232 19.0 23.0 0.00 0.00 0.00 50 1002.2
20181218205928 48 234 18.0 22.0 0.00 0.00 0.00 49 1002.3
20181218205419 48 231 17.0 21.0 0.00 0.00 0.00 48 1002.6
20181218204930 48 226 15.0 20.0 0.00 0.00 0.00 48 1002.6
20181218204402 48 222 13.0 17.0 0.00 0.00 0.00 49 1002.7
20181218203855 48 206 12.0 17.0 0.00 0.00 0.00 48 1002.8
20181218203407 49 217 12.0 17.0 0.00 0.00 0.00 48 1003.0
20181218202906 49 232 13.0 17.0 0.00 0.00 0.00 47 1003.2
20181218202419 49 236 14.0 17.0 0.00 0.00 0.00 46 1003.1
20181218201930 49 206 10.0 15.0 0.00 0.00 0.00 47 1003.3
20181218201424 49 229 11.0 15.0 0.00 0.00 0.00 47 1003.3
20181218200855 48 232 11.0 17.0 0.00 0.00 0.00 47 1003.3
20181218200411 48 227 13.0 18.0 0.00 0.00 0.00 46 1003.6
20181218195902 48 236 13.0 19.0 0.00 0.00 0.00 48 1003.8
20181218195357 47 221 14.0 20.0 0.00 0.00 0.00 48 1003.9
20181218194949 47 226 16.0 23.0 0.00 0.00 0.00 49 1003.8
20181218194400 47 232 15.0 23.0 0.00 0.00 0.00 48 1003.9
20181218193933 47 224 15.0 20.0 0.00 0.00 0.00 49 1003.9
20181218193424 47 238 16.0 20.0 0.00 0.00 0.00 49 1004.1
20181218192916 47 232 15.0 22.0 0.00 0.00 0.00 48 1004.2
20181218192411 46 225 17.0 23.0 0.00 0.00 0.00 48 1004.3
20181218191904 46 234 17.0 22.0 0.00 0.00 0.00 48 1004.3
20181218191357 46 230 17.0 22.0 0.00 0.00 0.00 49 1004.5
20181218190910 46 207 14.0 19.0 0.00 0.00 0.00 49 1004.6
20181218190402 45 224 13.0 18.0 0.00 0.00 0.00 51 1004.9
20181218185954 45 209 14.0 17.0 0.00 0.00 0.00 52 1005.0
20181218185405 45 224 13.0 17.0 0.00 0.00 0.00 52 1005.2
20181218184858 44 210 10.0 15.0 0.00 0.00 0.00 55 1005.4
20181218184410 44 214 10.0 14.0 0.00 0.00 0.00 56 1005.3
20181218183907 43 193 9.0 13.0 0.00 0.00 0.00 56 1005.6
20181218183420 43 213 9.0 13.0 0.00 0.00 0.00 57 1005.6
20181218182854 42 221 9.0 13.0 0.00 0.00 0.00 58 1005.7
20181218182430 41 211 7.0 15.0 0.00 0.00 0.00 59 1006.0
20181218181921 41 206 9.0 16.0 0.00 0.00 0.00 59 1006.1
20181218181353 41 227 12.0 17.0 0.00 0.00 0.00 59 1006.3
20181218180906 41 223 14.0 17.0 0.00 0.00 0.00 59 1006.4
20181218180358 41 229 12.0 16.0 0.00 0.00 0.00 59 1006.6
20181218175853 41 213 13.0 16.0 0.00 0.00 0.00 60 1006.7
20181218175426 41 222 13.0 16.0 0.00 0.00 0.00 59 1006.7
20181218174901 41 225 11.0 15.0 0.00 0.00 0.00 60 1006.7
20181218174353 40 225 12.0 15.0 0.00 0.00 0.00 60 1006.9
20181218173906 40 233 11.0 16.0 0.00 0.00 0.00 61 1007.0
20181218173359 39 212 13.0 17.0 0.00 0.00 0.00 61 1007.2
20181218172911 39 222 14.0 18.0 0.00 0.00 0.00 60 1007.2
20181218172406 40 229 16.0 20.0 0.00 0.00 0.00 61 1007.3
20181218171859 40 220 16.0 20.0 0.00 0.00 0.00 59 1007.4
20181218171412 40 235 15.0 20.0 0.00 0.00 0.00 59 1007.4
20181218170905 39 231 15.0 19.0 0.00 0.00 0.00 60 1007.6
20181218170422 39 239 16.0 19.0 0.00 0.00 0.00 60 1007.8
20181218165852 39 223 16.0 19.0 0.00 0.00 0.00 60 1007.7
20181218165427 39 226 15.0 19.0 0.00 0.00 0.00 59 1007.8
20181218164901 39 210 11.0 16.0 0.00 0.00 0.00 60 1007.7
20181218164417 39 207 12.0 16.0 0.00 0.00 0.00 61 1007.7
20181218163909 38 220 13.0 17.0 0.00 0.00 0.00 61 1007.8
20181218163401 38 207 13.0 17.0 0.00 0.00 0.00 61 1007.9
20181218162914 38 216 12.0 17.0 0.00 0.00 0.00 61 1007.9
20181218162405 38 212 14.0 18.0 0.00 0.00 0.00 61 1008.0
20181218161918 38 204 13.0 18.0 0.00 0.00 0.00 61 1008.0
20181218161412 38 209 14.0 17.0 0.00 0.00 0.00 61 1008.1
20181218160927 37 227 14.0 17.0 0.00 0.00 0.00 61 1008.1
20181218160423 37 230 15.0 17.0 0.00 0.00 0.00 60 1008.1
20181218155853 38 210 13.0 17.0 0.00 0.00 0.00 60 1008.2
20181218155428 38 234 12.0 16.0 0.00 0.00 0.00 60 1008.3
20181218154919 38 225 13.0 16.0 0.00 0.00 0.00 60 1008.3
20181218154350 38 219 12.0 15.0 0.00 0.00 0.00 60 1008.3
20181218153905 37 222 12.0 14.0 0.00 0.00 0.00 61 1008.3
20181218153358 37 205 12.0 14.0 0.00 0.00 0.00 61 1008.4
20181218152910 37 217 12.0 15.0 0.00 0.00 0.00 61 1008.4
20181218152401 37 217 12.0 15.0 0.00 0.00 0.00 62 1008.5
20181218151914 37 214 13.0 15.0 0.00 0.00 0.00 62 1008.5
20181218151405 37 206 12.0 15.0 0.00 0.00 0.00 62 1008.4
20181218150905 37 213 13.0 16.0 0.00 0.00 0.00 63 1008.4
20181218150356 36 209 12.0 16.0 0.00 0.00 0.00 63 1008.3
20181218145930 36 213 12.0 15.0 0.00 0.00 0.00 63 1008.3
20181218145401 36 218 12.0 15.0 0.00 0.00 0.00 63 1008.5
20181218144853 36 213 12.0 15.0 0.00 0.00 0.00 63 1008.4
20181218144405 36 213 12.0 15.0 0.00 0.00 0.00 63 1008.4
20181218143859 37 223 13.0 16.0 0.00 0.00 0.00 62 1008.2
20181218143412 37 221 12.0 16.0 0.00 0.00 0.00 62 1008.3
20181218142904 37 216 12.0 14.0 0.00 0.00 0.00 62 1008.3
20181218142401 37 213 11.0 13.0 0.00 0.00 0.00 62 1008.3
20181218141913 37 215 11.0 13.0 0.00 0.00 0.00 62 1008.3
20181218141427 37 213 10.0 12.0 0.00 0.00 0.00 63 1008.4
20181218140859 37 217 11.0 14.0 0.00 0.00 0.00 63 1008.5
20181218140354 37 217 12.0 14.0 0.00 0.00 0.00 63 1008.4
20181218135904 37 215 12.0 13.0 0.00 0.00 0.00 63 1008.4
20181218135357 36 209 11.0 13.0 0.00 0.00 0.00 63 1008.4
20181218134911 36 213 10.0 12.0 0.00 0.00 0.00 63 1008.3
20181218134443 36 207 10.0 13.0 0.00 0.00 0.00 64 1008.3
20181218133914 36 211 11.0 13.0 0.00 0.00 0.00 64 1008.3
20181218133425 36 214 11.0 13.0 0.00 0.00 0.00 65 1008.3
20181218132857 36 207 10.0 13.0 0.00 0.00 0.00 65 1008.3
20181218132357 36 210 10.0 12.0 0.00 0.00 0.00 65 1008.3
20181218131909 36 212 9.0 12.0 0.00 0.00 0.00 65 1008.3
20181218131402 36 203 10.0 13.0 0.00 0.00 0.00 65 1008.3
20181218130854 36 201 11.0 12.0 0.00 0.00 0.00 65 1008.2
20181218130411 36 212 9.0 11.0 0.00 0.00 0.00 65 1008.2
20181218125902 36 211 8.0 11.0 0.00 0.00 0.00 65 1008.2
20181218125358 36 213 7.0 11.0 0.00 0.00 0.00 64 1008.2
20181218124850 36 212 10.0 11.0 0.00 0.00 0.00 64 1008.3
20181218124351 36 211 6.0 9.0 0.00 0.00 0.00 64 1008.2
20181218123927 37 205 7.0 9.0 0.00 0.00 0.00 63 1008.1
20181218123439 37 205 6.0 10.0 0.00 0.00 0.00 61 1008.1
20181218122909 38 205 8.0 10.0 0.00 0.00 0.00 59 1008.2
20181218122405 39 207 5.0 7.0 0.00 0.00 0.00 58 1008.2
20181218121857 39 207 6.0 7.0 0.00 0.00 0.00 57 1008.2
20181218121412 39 207 4.0 6.0 0.00 0.00 0.00 57 1008.2
20181218120905 39 207 3.0 6.0 0.00 0.00 0.00 58 1008.1
20181218120358 39 207 3.0 6.0 0.00 0.00 0.00 58 1008.2
20181218115853 38 207 5.0 6.0 0.00 0.00 0.00 59 1008.1
20181218115405 38 207 5.0 6.0 0.00 0.00 0.00 59 1008.2
20181218114858 39 207 5.0 6.0 0.00 0.00 0.00 58 1008.2
20181218114411 39 207 5.0 6.0 0.00 0.00 0.00 58 1008.2
20181218113925 39 207 4.0 6.0 0.00 0.00 0.00 58 1008.2
20181218113356 39 207 4.0 7.0 0.00 0.00 0.00 58 1008.2
20181218112931 38 207 5.0 7.0 0.00 0.00 0.00 60 1008.2
20181218112421 38 207 6.0 7.0 0.00 0.00 0.00 60 1008.1
20181218111855 38 208 6.0 8.0 0.00 0.00 0.00 60 1008.1
20181218111428 38 215 6.0 9.0 0.00 0.00 0.00 60 1008.3
20181218110900 38 213 6.0 9.0 0.00 0.00 0.00 60 1008.3
20181218110420 38 227 7.0 10.0 0.00 0.00 0.00 59 1008.3
20181218105946 39 229 7.0 10.0 0.00 0.00 0.00 59 1008.3
20181218105904 39 229 7.0 10.0 0.00 0.00 0.00 59 1008.3
20181218105400 39 227 6.0 10.0 0.00 0.00 0.00 59 1008.3
20181218104913 38 226 7.0 10.0 0.00 0.00 0.00 61 1008.3
20181218104428 38 232 7.0 10.0 0.00 0.00 0.00 61 1008.4
20181218103858 38 230 7.0 11.0 0.00 0.00 0.00 62 1008.4
20181218103415 38 222 8.0 12.0 0.00 0.00 0.00 61 1008.4
20181218102907 38 224 9.0 14.0 0.00 0.00 0.00 61 1008.4
20181218102400 39 224 10.0 14.0 0.00 0.00 0.00 60 1008.5
20181218101932 39 227 11.0 13.0 0.00 0.00 0.00 60 1008.3
20181218101404 38 213 11.0 12.0 0.00 0.00 0.00 62 1008.4
20181218100857 38 211 10.0 13.0 0.00 0.00 0.00 62 1008.5
20181218100449 38 205 12.0 14.0 0.00 0.00 0.00 62 1008.4
20181218095905 38 202 12.0 14.0 0.00 0.00 0.00 62 1008.6
20181218095418 39 201 13.0 16.0 0.00 0.00 0.00 62 1008.6
20181218094909 39 219 14.0 16.0 0.00 0.00 0.00 62 1008.6
20181218094403 37 215 12.0 14.0 0.00 0.00 0.00 65 1008.8
20181218093857 37 203 12.0 14.0 0.00 0.00 0.00 66 1008.7
20181218093412 36 209 11.0 14.0 0.00 0.00 0.00 66 1008.9
20181218092924 36 201 12.0 15.0 0.00 0.00 0.00 68 1008.8
20181218092418 35 205 13.0 15.0 0.00 0.00 0.00 69 1008.8
20181218091401 36 211 14.0 16.0 0.00 0.00 0.00 67 1008.7
20181218090914 36 217 13.0 15.0 0.00 0.00 0.00 65 1008.7
20181218090409 37 217 12.0 14.0 0.00 0.00 0.00 64 1008.7
20181218085901 37 223 13.0 14.0 0.00 0.00 0.00 65 1008.6
20181218085433 36 229 10.0 12.0 0.00 0.00 0.00 68 1008.6
20181218084924 36 239 9.0 13.0 0.00 0.00 0.00 65 1008.6
20181218084356 38 239 10.0 12.0 0.00 0.00 0.00 61 1008.6
20181218083909 39 242 9.0 12.0 0.00 0.00 0.00 59 1008.7
20181218083441 41 227 10.0 11.0 0.00 0.00 0.00 56 1008.2
20181218082911 41 229 9.0 11.0 0.00 0.00 0.00 54 1008.2
20181218082404 43 242 9.0 11.0 0.00 0.00 0.00 50 1008.2
20181218081857 47 257 9.0 11.0 0.00 0.00 0.00 43 1008.3
20181218081430 48 200 3.0 4.0 0.00 0.00 0.00 39 1008.1
20181218080906 47 200 3.0 4.0 0.00 0.00 0.00 40 1008.0
20181218080418 45 200 2.0 7.0 0.00 0.00 0.00 45 1008.0
20181218075929 44 200 4.0 7.0 0.00 0.00 0.00 50 1008.0
20181218075421 43 200 5.0 10.0 0.00 0.00 0.00 53 1008.0
20181218074855 42 203 7.0 11.0 0.00 0.00 0.00 55 1008.2
20181218074432 41 197 6.0 11.0 0.00 0.00 0.00 56 1008.0
20181218073904 40 198 8.0 11.0 0.00 0.00 0.00 57 1008.1
20181218073357 40 194 9.0 12.0 0.00 0.00 0.00 58 1008.1
20181218072930 40 196 10.0 12.0 0.00 0.00 0.00 59 1008.3
20181218072402 40 198 10.0 12.0 0.00 0.00 0.00 59 1008.3
20181218071855 39 201 10.0 13.0 0.00 0.00 0.00 59 1008.3
20181218071355 39 216 10.0 13.0 0.00 0.00 0.00 59 1008.3
20181218070928 39 221 10.0 14.0 0.00 0.00 0.00 59 1008.4
20181218070402 39 214 11.0 14.0 0.00 0.00 0.00 59 1008.4
20181218065857 39 220 12.0 16.0 0.00 0.00 0.00 59 1008.4
20181218065410 40 236 13.0 16.0 0.00 0.00 0.00 57 1008.6
20181218064923 41 234 14.0 16.0 0.00 0.00 0.00 55 1008.6
20181218064355 42 233 13.0 14.0 0.00 0.00 0.00 53 1008.6
20181218063951 42 228 12.0 14.0 0.00 0.00 0.00 52 1008.4
20181218063405 43 221 10.0 13.0 0.00 0.00 0.00 50 1008.4
20181218062918 44 217 12.0 13.0 0.00 0.00 0.00 49 1008.6
20181218062357 44 214 11.0 12.0 0.00 0.00 0.00 49 1008.6
20181218061910 44 192 10.0 12.0 0.00 0.00 0.00 48 1008.5
20181218061422 44 200 11.0 12.0 0.00 0.00 0.00 48 1008.6
20181218060918 44 211 10.0 12.0 0.00 0.00 0.00 48 1008.7
20181218060409 44 209 11.0 12.0 0.00 0.00 0.00 48 1008.8
20181218055901 44 211 10.0 13.0 0.00 0.00 0.00 48 1008.7
20181218055354 44 211 10.0 13.0 0.00 0.00 0.00 48 1008.7
20181218054907 44 206 11.0 12.0 0.00 0.00 0.00 49 1008.7
20181218054420 45 205 11.0 11.0 0.00 0.00 0.00 48 1008.8
20181218053912 45 210 10.0 10.0 0.00 0.00 0.00 48 1008.8
20181218053408 46 211 9.0 10.0 0.00 0.00 0.00 48 1008.9
20181218052904 45 210 7.0 10.0 0.00 0.00 0.00 48 1009.0
20181218052357 44 203 9.0 10.0 0.00 0.00 0.00 50 1008.8
20181218051911 43 204 9.0 10.0 0.00 0.00 0.00 52 1008.8
20181218051402 42 209 7.0 10.0 0.00 0.00 0.00 52 1008.9
20181218050859 42 218 8.0 10.0 0.00 0.00 0.00 52 1009.0
20181218050412 41 236 9.0 10.0 0.00 0.00 0.00 54 1009.0
20181218045922 41 248 7.0 8.0 0.00 0.00 0.00 55 1008.9
20181218045357 41 251 6.0 7.0 0.00 0.00 0.00 54 1008.9
20181218044910 41 254 5.0 7.0 0.00 0.00 0.00 54 1008.9
20181218044423 41 255 5.0 9.0 0.00 0.00 0.00 53 1008.9
20181218043855 43 255 6.0 9.0 0.00 0.00 0.00 51 1009.0
20181218043408 44 255 6.0 7.0 0.00 0.00 0.00 47 1009.0
20181218042921 46 252 4.0 7.0 0.00 0.00 0.00 45 1009.0
20181218042354 46 206 5.0 5.0 0.00 0.00 0.00 46 1008.9
20181218041908 46 202 2.0 3.0 0.00 0.00 0.00 45 1008.8
20181218041401 46 202 0.0 2.0 0.00 0.00 0.00 44 1008.7
20181218040858 47 202 1.0 2.0 0.00 0.00 0.00 44 1008.7
20181218040411 47 202 1.0 4.0 0.00 0.00 0.00 42 1008.7
20181218035902 47 202 0.0 4.0 0.00 0.00 0.00 42 1008.5
20181218035415 47 202 4.0 4.0 0.00 0.00 0.00 35 1008.5
20181218034906 47 204 2.0 3.0 0.00 0.00 0.00 36 1008.5
20181218034358 46 204 2.0 3.0 0.00 0.00 0.00 42 1008.6
20181218033912 47 204 1.0 4.0 0.00 0.00 0.00 43 1008.6
20181218033408 48 204 3.0 4.0 0.00 0.00 0.00 42 1008.6
20181218032900 47 204 2.0 3.0 0.00 0.00 0.00 41 1008.6
20181218032355 49 204 2.0 3.0 0.00 0.00 0.00 40 1008.4
20181218031912 49 204 0.0 2.0 0.00 0.00 0.00 38 1008.4
20181218031405 50 204 0.0 3.0 0.00 0.00 0.00 36 1008.3
20181218030858 51 204 1.0 3.0 0.00 0.00 0.00 33 1008.3
20181218030431 53 204 1.0 4.0 0.00 0.00 0.00 28 1008.4
20181218025901 54 204 2.0 4.0 0.00 0.00 0.00 25 1008.4
20181218025354 54 204 3.0 4.0 0.00 0.00 0.00 25 1008.3
20181218024926 53 204 4.0 4.0 0.00 0.00 0.00 26 1008.4
20181218024358 53 204 3.0 4.0 0.00 0.00 0.00 26 1008.3
20181218023908 53 204 3.0 4.0 0.00 0.00 0.00 26 1008.3
20181218023406 53 204 3.0 4.0 0.00 0.00 0.00 27 1008.2
20181218022859 53 204 4.0 4.0 0.00 0.00 0.00 27 1008.2
20181218022352 52 204 3.0 5.0 0.00 0.00 0.00 28 1008.3
20181218021928 52 204 4.0 6.0 0.00 0.00 0.00 30 1008.4
20181218021400 52 204 5.0 6.0 0.00 0.00 0.00 35 1008.3
20181218020852 51 204 5.0 6.0 0.00 0.00 0.00 38 1008.3
20181218020406 49 204 6.0 6.0 0.00 0.00 0.00 41 1008.3
20181218015856 49 204 4.0 6.0 0.00 0.00 0.00 41 1008.3
20181218015450 50 204 5.0 7.0 0.00 0.00 0.00 40 1008.4
20181218014940 50 204 5.0 8.0 0.00 0.00 0.00 39 1008.3
20181218014349 50 203 6.0 8.0 0.00 0.00 0.00 39 1008.3
20181218013909 51 203 7.0 8.0 0.00 0.00 0.00 39 1008.3
20181218013425 51 202 6.0 10.0 0.00 0.00 0.00 39 1008.4
20181218012855 51 201 8.0 10.0 0.00 0.00 0.00 39 1008.3
20181218012428 51 200 8.0 10.0 0.00 0.00 0.00 40 1008.3
20181218011859 50 200 9.0 10.0 0.00 0.00 0.00 40 1008.3
20181218011352 51 200 9.0 11.0 0.00 0.00 0.00 40 1008.3
20181218010925 50 199 9.0 11.0 0.00 0.00 0.00 40 1008.3
20181218010357 51 201 10.0 11.0 0.00 0.00 0.00 40 1008.3
20181218005907 51 202 9.0 11.0 0.00 0.00 0.00 40 1008.3
20181218005403 51 202 9.0 11.0 0.00 0.00 0.00 39 1008.5
20181218004859 51 205 9.0 11.0 0.00 0.00 0.00 39 1008.4
20181218004411 51 204 9.0 11.0 0.00 0.00 0.00 39 1007.6
20181218003904 51 204 9.0 11.0 0.00 0.00 0.00 38 1007.6
20181218003358 51 204 10.0 11.0 0.00 0.00 0.00 39 1007.6
20181218002931 51 212 8.0 10.0 0.00 0.00 0.00 39 1007.6
20181218002402 51 215 8.0 9.0 0.00 0.00 0.00 39 1007.7
20181218001937 51 217 7.0 10.0 0.00 0.00 0.00 39 1007.9